Weather History for KFTW - September, 2012

Change the Weather History Date:

Friday, September 14, 2012

  Actual Average Record
Temperature  
Mean Temperature 64 °F -  
Max Temperature 66 °F 87 °F 99 °F (2005)
Min Temperature 62 °F 66 °F 60 °F (2006)
Degree Days  
Heating Degree Days 1    
Growing Degree Days 14 (Base 50)    
Moisture  
Dew Point 62 °F    
Average Humidity 95    
Maximum Humidity 100    
Minimum Humidity 87    
Precipitation  
Precipitation 0.37 in - - ()
Sea Level Pressure  
Sea Level Pressure 30.19 in    
Wind  
Wind Speed 10 mph (NNW)    
Max Wind Speed 14 mph    
Max Gust Speed 20 mph    
Visibility 8 miles    
Events Rain    
Averages and records for this station are not official NWS values.
T = Trace of Precipitation, MM = Missing Value Source: NWS Daily Summary

Daily Weather History Graph

Daily Weather History Graph

Search for Another Location

Airport or City:

Trip Planner

Search our weather history database for the weather conditions in past years. The results will help you decide how hot, cold, wet, or windy it might be!

Date:

Astronomy

Sep. 14, 2012 Rise Set
Actual Time 7:12 AM CDT 7:36 PM CDT
Civil Twilight 6:48 AM CDT 8:00 PM CDT
Nautical Twilight 6:19 AM CDT 8:29 PM CDT
Astronomical Twilight 5:49 AM CDT 8:59 PM CDT
Moon 5:41 AM CDT (9/14) 6:33 PM CDT (9/14)
Length of Visible Light 13h 12m
Length of Day
12h 23m
Waning Crescent, 2% of the Moon is Illuminated
Sep 14
Waning Crescent
Sep 15
New
Sep 22
First Quarter
Sep 29
Full
Oct 8
Last Quarter

Hourly Weather History & Observations

Time (CDT) Temp. Dew Point Humidity Pressure Visibility Wind Dir Wind Speed Gust Speed Precip Events Conditions
12:53 AM 66.9 °F 64.0 °F 90% 30.15 in 10.0 mi NNW 11.5 mph 19.6 mph N/A   Overcast
1:53 AM 66.0 °F 63.0 °F 90% 30.15 in 10.0 mi NNW 11.5 mph - N/A   Overcast
2:26 AM 66.2 °F 62.6 °F 88% 30.17 in 10.0 mi NW 12.7 mph - N/A   Overcast
2:53 AM 64.9 °F 63.0 °F 93% 30.15 in 10.0 mi NW 13.8 mph - N/A   Overcast
3:53 AM 64.9 °F 62.1 °F 90% 30.15 in 10.0 mi NNW 9.2 mph - N/A   Overcast
4:53 AM 64.9 °F 62.1 °F 90% 30.15 in 10.0 mi NW 9.2 mph - N/A   Overcast
5:53 AM 63.0 °F 63.0 °F 100% 30.17 in 6.0 mi NW 6.9 mph - N/A   Overcast
6:53 AM 63.0 °F 63.0 °F 100% 30.17 in 7.0 mi NW 9.2 mph - 0.00 in Rain Light Rain
7:44 AM 62.6 °F 62.6 °F 100% 30.20 in 6.0 mi NW 10.4 mph - 0.00 in   Overcast
7:53 AM 63.0 °F 63.0 °F 100% 30.18 in 6.0 mi NW 6.9 mph - 0.00 in   Overcast
8:19 AM 62.6 °F 62.6 °F 100% 30.20 in 6.0 mi NW 10.4 mph - N/A   Overcast
8:29 AM 62.6 °F 62.6 °F 100% 30.20 in 6.0 mi NW 8.1 mph - N/A   Overcast
8:53 AM 64.0 °F 63.0 °F 96% 30.19 in 10.0 mi NNW 11.5 mph - N/A   Overcast
9:08 AM 62.6 °F 62.6 °F 100% 30.21 in 10.0 mi NNW 8.1 mph - N/A   Overcast
9:15 AM 62.6 °F 62.6 °F 100% 30.22 in 10.0 mi NW 8.1 mph - N/A   Overcast
9:23 AM 62.6 °F 62.6 °F 100% 30.22 in 10.0 mi NNW 6.9 mph - N/A   Overcast
9:53 AM 63.0 °F 62.1 °F 97% 30.21 in 6.0 mi NNW 9.2 mph - 0.00 in Rain Light Rain
10:24 AM 62.6 °F 62.6 °F 100% 30.23 in 1.8 mi North 8.1 mph - 0.02 in Rain Rain
10:53 AM 62.1 °F 62.1 °F 100% 30.23 in 0.8 mi North 5.8 mph - 0.22 in Rain Heavy Rain
10:55 AM 62.6 °F 62.6 °F 100% 30.24 in 1.0 mi NNW 4.6 mph - 0.01 in Rain Heavy Rain
11:53 AM 63.0 °F 63.0 °F 100% 30.22 in 5.0 mi North 8.1 mph - 0.14 in Rain Light Rain
12:53 PM 64.0 °F 63.0 °F 96% 30.22 in 10.0 mi NW 8.1 mph - 0.00 in   Overcast
1:53 PM 64.0 °F 63.0 °F 96% 30.21 in 10.0 mi NW 8.1 mph - N/A   Overcast
2:53 PM 64.9 °F 63.0 °F 93% 30.19 in 10.0 mi NNW 10.4 mph - N/A   Overcast
3:22 PM 64.4 °F 62.6 °F 94% 30.20 in 10.0 mi NNW 9.2 mph - 0.01 in   Overcast
3:53 PM 64.9 °F 62.1 °F 90% 30.18 in 10.0 mi NNW 9.2 mph - 0.01 in   Overcast
4:53 PM 64.9 °F 62.1 °F 90% 30.17 in 10.0 mi NNW 10.4 mph - 0.00 in Rain Light Rain
5:53 PM 64.9 °F 62.1 °F 90% 30.17 in 10.0 mi NNW 9.2 mph - 0.00 in Rain Light Rain
6:53 PM 64.9 °F 62.1 °F 90% 30.18 in 10.0 mi NW 9.2 mph - 0.00 in   Overcast
7:53 PM 64.9 °F 61.0 °F 87% 30.19 in 10.0 mi NW 8.1 mph - N/A   Overcast
8:53 PM 64.0 °F 61.0 °F 90% 30.21 in 10.0 mi NW 9.2 mph - N/A   Overcast
9:53 PM 64.0 °F 61.0 °F 90% 30.22 in 10.0 mi NW 9.2 mph - N/A   Overcast
10:36 PM 62.6 °F 62.6 °F 100% 30.23 in 10.0 mi NNW 5.8 mph - N/A   Overcast
10:53 PM 63.0 °F 62.1 °F 97% 30.22 in 10.0 mi NNW 3.5 mph - N/A   Overcast
11:53 PM 64.0 °F 62.1 °F 93% 30.21 in 10.0 mi North 3.5 mph - N/A   Overcast